Flag for Canada Weather past 2 weeks in Steinbach, Manitoba, Canada

Now
62 °F

Cool.


Feels Like: 62 °F
Forecast: N/A
Wind: 2 mph from Northeast

Location: Winnipeg The Forks

Current Time: Sep 16, 2014 at 6:48:31 PM

Latest Report: Sep 16, 2014 at 6:00 PM


Visibility: N/A

Pressure: 29.91 "Hg

Humidity: 61%

Dew point: 48 °F

Location of SteinbachLocation

Historic Weather in Steinbach — Graph

°F

Steinbach temperature yesterday

Maximum temperature yesterday: 65 °F (at 6:00 PM)
Minimum temperature yesterday: 43 °F (at 7:00 AM)
Average temperature yesterday: 54 °F

Past Weeks' High & Low Weather Summary

 TemperatureHumidityPressure
High76 °F (Sep 7, 5:00 PM)100% (Sep 3, 4:00 AM)30.44 "Hg (Sep 3, 4:00 AM)
Low40 °F (Sep 13, 5:00 AM)24% (Sep 15, 4:00 PM)29.53 "Hg (Sep 8, 10:00 AM)
Average55 °F67%30.00 "Hg
* Reported Sep 1 5:00 PM — Sep 16 5:00 PM, Steinbach, Weather by CustomWeather, © 2014

Note: Actual official high and low records may vary slightly from our data, if they occured in-between our weather recording intervals... More about our weather records

Advertising

Steinbach weather history for previous 24 hours

 ConditionsComfort  
Time TempWeatherWind HumidityBarometerVisibility
5:00 PM
Sep 16
64 °FMild.3 mph52%29.93 "HgN/A
4:00 PM65 °FMild.3 mph48%29.94 "HgN/A
3:00 PM64 °FMild.3 mph49%29.96 "HgN/A
2:00 PM64 °FMild.5 mph51%29.97 "HgN/A
1:00 PM65 °FMild.3 mph59%29.98 "HgN/A
12:00 PM63 °FMild.3 mph63%29.98 "HgN/A
11:00 AM61 °FCool.2 mph68%29.98 "HgN/A
10:00 AM57 °FCool.2 mph74%29.98 "HgN/A
9:00 AM55 °FCool.3 mph73%29.98 "HgN/A
8:00 AM55 °FCool.5 mph62%29.97 "HgN/A
7:00 AM55 °FRefreshingly cool.2 mph57%29.96 "HgN/A
6:00 AM56 °FRefreshingly cool.3 mph53%29.95 "HgN/A
5:00 AM56 °FRefreshingly cool.5 mph52%29.95 "HgN/A
4:00 AM55 °FRefreshingly cool.5 mph56%29.95 "HgN/A
3:00 AM57 °FRefreshingly cool.5 mph53%29.95 "HgN/A
2:00 AM57 °FRefreshingly cool.6 mph52%29.95 "HgN/A
1:00 AM57 °FRefreshingly cool.5 mph52%29.96 "HgN/A
12:00 AM56 °FRefreshingly cool.6 mph52%29.97 "HgN/A
11:00 PM
Sep 15
57 °FRefreshingly cool.6 mph47%29.98 "HgN/A
10:00 PM56 °FRefreshingly cool.3 mph49%29.99 "HgN/A
9:00 PM58 °FRefreshingly cool.3 mph45%30.01 "HgN/A
8:00 PM60 °FRefreshingly cool.3 mph42%30.01 "HgN/A
7:00 PM63 °FMild.5 mph35%30.03 "HgN/A
6:00 PM65 °FMild.5 mph29%30.04 "HgN/A
Weather by CustomWeather, © 2014

See weather overviewHow to use our weather pages